Home > Weather > Santa Cruz > Past weeks

Flag for USA Past Weather in Santa Cruz, California, USA — Yesterday and Last 2 Weeks

Now
58 °F

Low clouds.


Feels Like: 58 °F
Forecast: 56 / 67 °F
Wind: No wind

Location: Watsonville Municipal Airport

Current Time: Aug 24, 2016 at 1:55:04 AM

Latest Report: Aug 24, 2016 at 12:53 AM


Visibility: 10 mi

Pressure: 30.10 "Hg

Humidity: 97%

Dew Point: 57 °F

Location of Santa CruzLocation

Past Weather in Santa Cruz — Graph

°F

Santa Cruz Temperature Yesterday

Maximum temperature yesterday: 68 °F (at 1:53 PM)
Minimum temperature yesterday: 57 °F (at 7:53 AM)
Average temperature yesterday: 60 °F

High & Low Weather Summary for the Past Weeks

 TemperatureHumidityPressure
High75 °F (Aug 13, 11:53 AM)100% (Aug 9, 11:53 PM)30.11 "Hg (Aug 9, 11:53 PM)
Low53 °F (Aug 15, 7:53 AM)54% (Aug 13, 12:53 PM)29.84 "Hg (Aug 17, 6:53 PM)
Average59 °F90%29.95 "Hg
* Reported Aug 8 11:53 PM — Aug 23 11:53 PM, Santa Cruz, Weather by CustomWeather, © 2016

Note: Actual official high and low records may vary slightly from our data, if they occured in-between our weather recording intervals... More about our weather records

Advertising

Santa Cruz Weather History for the Previous 24 Hours

Scroll right to see more
 ConditionsComfort  
Time TempWeatherWind HumidityBarometerVisibility
11:53 PM
Tue, Aug 23
58 °FLow clouds.No wind97%30.10 "Hg10 mi
10:53 PM59 °FLow clouds.No wind93%30.11 "Hg10 mi
9:53 PM59 °FLow clouds.No wind93%30.11 "Hg10 mi
8:53 PM58 °FLow clouds.No wind97%30.10 "Hg10 mi
7:53 PM58 °FSunny.3 mph93%30.08 "Hg10 mi
6:53 PM61 °FSunny.7 mph83%30.08 "Hg10 mi
5:53 PM63 °FSunny.10 mph81%30.08 "Hg10 mi
4:53 PM65 °FSunny.8 mph76%30.08 "Hg10 mi
3:53 PM67 °FSunny.10 mph71%30.08 "Hg10 mi
2:53 PM67 °FMild.10 mph68%30.09 "HgN/A
1:53 PM68 °FSunny.10 mph68%30.10 "Hg10 mi
12:53 PM66 °FSunny.8 mph73%30.10 "Hg10 mi
11:53 AM62 °FLow clouds.5 mph86%30.11 "Hg10 mi
10:53 AM60 °FLow clouds.No wind90%30.11 "Hg10 mi
9:53 AM59 °FLow clouds.No wind93%30.09 "Hg10 mi
8:53 AM58 °FFog.No wind100%30.08 "Hg6 mi
7:53 AM57 °FFog.5 mph100%30.07 "Hg6 mi
6:53 AM58 °FFog.3 mph97%30.05 "Hg6 mi
5:53 AM58 °FFog.3 mph100%30.03 "Hg5 mi
4:53 AM58 °FLow clouds.No wind97%30.02 "Hg7 mi
3:53 AM58 °FLow clouds.3 mph97%30.02 "Hg9 mi
2:53 AM58 °FLow clouds.No wind97%30.01 "Hg10 mi
1:53 AM58 °FLow clouds.3 mph93%30.01 "Hg10 mi
Weather by CustomWeather, © 2016

See weather overviewHow to use our weather pages